Regional Weather Roundup
Issued by NWS Wakefield, VA

Home | Current Version | Previous Version | Text Only | Print | Product List | Glossary Off
Versions: 1 2 3 4 5 6 7 8 9 10 11 12 13 14 15 16 17 18 19 20 21 22 23 24 25 26 27 28 29 30 31 32 33 34 35 36 37 38 39 40 41 42 43 44 45 46 47 48 49 50

000
ASUS41 KAKQ 032215
RWRAKQ

REGIONAL WEATHER ROUNDUP
NATIONAL WEATHER SERVICE WAKEFIELD VA
600 PM EDT SUN MAY 03 2015

Note: "fair" indicates few or no clouds below 12,000 feet with no
significant weather and/or obstructions to visibility. * = Denotes
station may not report precipitation (e.g., rain,snow,etc.),
thunder or fog.

VAZ042-051-052>054-056-032300-
NORTHERN VIRGINIA

CITY           SKY/WX    TMP DP  RH WIND       PRES   REMARKS
WASH NATIONAL  PTSUNNY   78  51  38 S6        30.09S
DULLES         MOSUNNY   79  40  24 W6        30.09S
FORT BELVOIR   SUNNY     78  43  28 S5        30.09S
QUANTICO       PTSUNNY   74  52  46 S10       30.10S
FREDERICKSBRG* SUNNY     82  43  25 SW7       30.09S
STAFFORD*      MOSUNNY   76  35  22 SW3       30.13S
WARRENTON      SUNNY     80  48  33 SW6       30.10S
CULPEPER*      NOT AVBL
MANASSAS*      MOSUNNY   79  43  27 SW7       30.09S
LEESBURG*      SUNNY     79  46  31 W3        30.10R
WINCHESTER     PTSUNNY   77  27  15 CALM      30.10S
FRONT ROYAL*   FAIR      77  43  29 S5        30.09S
LURAY*         CLOUDY    79  45  29 CALM      30.11S
$$

VAZ048-049-060>072-079>083-032300-
CENTRAL AND SOUTH CENTRAL VIRGINIA

CITY           SKY/WX    TMP DP  RH WIND       PRES   REMARKS
RICHMOND       MOSUNNY   79  40  24 S7        30.11S
CHESTERFIELD*  FAIR      79  39  24 SW6       30.13S
PETERSBURG*    MOSUNNY   71  56  59 CALM      30.13S
HANOVER        SUNNY     79  40  24 VRB5      30.12S
TAPPAHANNOCK*  SUNNY     80  29  16 S6        30.11S
QUINTON*       FAIR      79  40  25 S3        30.11S
CHARLOTTSVILLE MOSUNNY   76  41  28 S12       30.11R
GORDONSVILLE*  FAIR      77  42  28 S5        30.10S
ORANGE*        MOSUNNY   79  45  29 CALM      30.12S
LOUISA*        MOSUNNY   79  41  25 CALM      30.11R
BUMPASS*       FAIR      76  42  28 SW3       30.11S
FARMVILLE*     MOSUNNY   80  39  23 S3        30.12R
CREWE*         MOCLDY    76  38  25 CALM      30.13R
FORT PICKETT*  FAIR      76  41  28 SW7       30.13S
CHASE CITY*    FAIR      77  48  35 CALM      30.14S
CLARKSVILLE*   FAIR      73  45  35 CALM      30.14R
SOUTH HILL*    MOSUNNY   73  44  34 CALM      30.20R
LAWRENCEVILLE* FAIR      76  42  29 W5        30.13S
EMPORIA*       MOSUNNY   77  41  27 CALM      30.15S
$$

VAZ088>098-032300-
SOUTHEAST VIRGINIA

CITY           SKY/WX    TMP DP  RH WIND       PRES   REMARKS
NORFOLK        SUNNY     79  36  21 W5        30.12S
VIRGINIA BEACH MOSUNNY   76  47  35 SE8       30.12S
NORFOLK NAVAL  MOSUNNY   82  41  23 W5        30.14R
WEST POINT*    SUNNY     82  29  14 S6        30.13S
SALUDA*        FAIR      75  44  33 SE7       30.12R
NEWPORT NEWS   SUNNY     82  42  24 SW7       30.12S
LANGLEY AFB    SUNNY     78  44  30 SW12      30.11R
FORT EUSTIS    MOSUNNY   77  45  31 S5        30.10S
WILLIAMSBURG*  SUNNY     82  45  26 SW5       30.13R
HR EXEC AP*    FAIR      81  43  26 SW6       30.14R
FRANKLIN*      MOSUNNY   77  44  30 SW3       30.13S
WAKEFIELD      MOSUNNY   80  42  25 SW3       30.13R
$$

VAZ020-022-025-037-045-032300-
WEST CENTRAL AND SOUTHWEST VIRGINIA

CITY           SKY/WX    TMP DP  RH WIND       PRES   REMARKS
STAUNTON*      PTSUNNY   75  38  26 S3        30.14R
WAYNESBORO*    FAIR      74  39  27 SE3       30.13S
HOT SPRINGS VA PTSUNNY   65  32  29 S7        30.20S
LYNCHBURG      PTSUNNY   74  42  31 SW6       30.16R
DANVILLE       MOSUNNY   77  42  28 SW5       30.14R
SOUTH BOSTON*  FAIR      77  40  26 SW5       30.14S
MARTINSVILLE   SUNNY     78  41  26 S5        30.16S
ROANOKE        MOSUNNY   74  42  31 SE8       30.15S
BLACKSBURG     SUNNY     70  35  27 CALM      30.19F
DUBLIN*        SUNNY     72  41  32 E3        30.17S
MARION*        MOSUNNY   73  41  32 E3        30.18S
HILLSVILLE*    CLOUDY    67  46  46 SE5       30.18S
RICHLANDS*     FAIR      69  31  24 W6        30.17S
WISE*          CLOUDY    73  32  21 E5        30.17S
ABINGDON*      SUNNY     76  37  24 NW6       30.15R
$$

MDZ021>025-VAZ099-100-032300-
SOUTHERN MARYLAND AND THE DELMARVA PENINSULA

CITY           SKY/WX    TMP DP  RH WIND       PRES   REMARKS
PATUXENT RIVER MOSUNNY   73  44  35 SE8       30.10S
BAY BRIDGE APT   N/A    N/A N/A N/A S7        30.09S
LEONARDTOWN    PTSUNNY   79  36  21 SW7       30.11S
DOVER          SUNNY     74  50  43 E7        30.06S
GEORGETOWN     MOSUNNY   75  48  38 SE13      30.10R
EASTON         MOSUNNY   81  46  30 SW8       30.13S
CAMBRIDGE      SUNNY     79  34  19 SW6       30.10R
SALISBURY      PTSUNNY   79  39  23 NW9       30.10R
OCEAN CITY     SUNNY     62  50  64 S5        30.12R
WALLOPS ISLAND SUNNY     67  56  67 E9        30.11R
ACCOMACK*      SUNNY     77  45  31 W6        30.12S
$$

NCZ012>017-030>032-032300-
NORTH CENTRAL AND EASTERN NORTH CAROLINA

CITY           SKY/WX    TMP DP  RH WIND       PRES   REMARKS
ROANOKE RAPIDS FAIR      75  46  35 S5        30.14S
RALEIGH        MOSUNNY   75  45  34 W5        30.15S
ELIZABETH CITY MOSUNNY   75  48  38 S9        30.14R
AHOSKIE*       MOSUNNY   75  48  37 CALM      30.14S
EDENTON*       MOSUNNY   76  48  36 S3        30.15S
CURRITUCK*     CLOUDY    78  41  27 S6        30.14S
KILL DEVIL HLS MOSUNNY   75  44  32 S3        30.14S
MANTEO         SUNNY     72  47  41 S10       30.16S
CAPE HATTERAS  SUNNY     67  57  70 SW5       30.17S
TARBORO*       FAIR      79  45  29 S3        30.16S
GOLDSBORO      SUNNY     78  44  29 CALM      30.14R
WASHINGTON     MOSUNNY   77  44  31 SW5       30.16S
GREENVILLE     MOSUNNY   75  46  35 CALM      30.17R
NEW BERN       PTSUNNY   76  44  32 S9        30.17R
WILMINGTON     SUNNY     74  40  29 SE12      30.17S
$$

VAZ048-032300-
ELSEWHERE

CITY           SKY/WX    TMP DP  RH WIND       PRES   REMARKS
HARRISBURG PA  PTSUNNY   75  48  38 CALM      30.06S
BALTIMORE      PTSUNNY   79  43  27 NW6       30.07S
ANNAPOLIS      SUNNY     75  43  31 S6        30.08S
ANDREWS AFB    MOSUNNY   79  43  27 S7        30.08S
PHILADELPHIA   MOSUNNY   81  37  20 CALM      30.07S
HENDERSON NC   CLOUDY    76  39  25 CALM      30.15R
GREENSBORO     PTSUNNY   75  44  33 SW6       30.14S
ROCKY MOUNT    MOSUNNY   73  50  44 CALM      30.15S
$$

VAZ100-032300-
MARINE

STATION/POSITION TIME  TEMP    WIND        PRES    WAVE   SWELL
                       AIR SEA DIR/SP/G            HT/PER HT/PER
                 (UTC) (F)     (DEG/KT/KT) (MB)    (FT/S) (FT/S)
BRANDYWINE LGT   2100   58 56  170/ 13/ 14 1019.2
CAPE MAY NJ      2100   66 60  130/  8/  9 1018.8F
LEWES DE         2100   66 58  140/  7/  9 1019.0S
15NM E FENWICK I 2150   55 53              1019.5S   4/ 8
OCEAN-CITY-INLET 2100   62 60  160/  6/  8 1019.4S
WACHAPREAGUE VA  2100   79 65  320/  3/  6 1019.7F
THOMAS POINT MD  2200   69 58  160/  9/  9 1019.4S
GOOSES REEF MD   2200   67 62                N/A     0
COVE POINT MD    2100   71     180/ 11/ 11 1019.9F
SOLOMONS ISLAND  2100      62                N/A
BISHOPS HEAD MD  2100   69 65  230/  8/ 10 1019.1F
PINEY POINT MD   2118          170/  7/  8   N/A
CAMBRIDGE MD     2100   75 61   10/  6/  7 1018.8F
LEWISETTA VA     2100   69 63              1019.1F
RAPPAHANNOCK LGT 2100          190/  6/  6 1020.5F
YORK RVR RNG VA  2100   67     150/  9/ 10 1019.3F
YORKTOWN VA      2100   78 62  290/  3/  6 1019.4F
JAMESTOWN VA     2200   77 65     CALM     1019.0S
DOMINION TERM VA 2100   75     200/  4/  5 1020.0F
KIPTOPEKE VA     2100      64  180/  2/  3   N/A
CHES BAY BRIDGE  2100   74 60   70/  3/  3 1019.6S
CAPE HENRY VA    2100   73     140/ 10/ 13 1018.9S
CHESAPEAKE LGHT  2100   69     170/ 10/ 12 1020.9F
WILLOUBY STN VA  2100   76     220/  9/  9 1020.6S
S CRANEY ISL VA  2100           20/  4/  5 1019.9F
CAPE HENRY BUOY  2128      61                N/A     4/12   2/12
1ST LANDING BUOY 2200      61              1048.5    2/ 6
CAPE CHARLES BUO 2126      60                N/A     4/ 9   3/ 9
OFFSHORE WE BUOY 2111      57                N/A     4/ 9   3/ 9
64NM E OF VA BCH 2150   63 63  180/  4/  4 1020.6R   5/12   5/12
DUCK PIER NC     2100   74 54  200/  6/  8 1019.7S
44056 DUCK FRF   2111      60                N/A     4/11   2/11
OREGON INLET NC  2100   67 61  180/  8/  9 1021.2R
HATTERAS NC      2100   73 64  210/  6/  8 1021.2R
DIAMOND SHLS NC  2150   66 62  220/  4/  6 1022.0R   4/ 9   5/ 9
CAPE LOOKOUT NC  2200   71     200/  8/ 10 1021.8R
$$



USA.gov is the U.S. government's official web portal to all federal, state and local government web resources and services.